Regional Weather Roundup
Issued by NWS

Home | Current Version | Previous Version | Graphics & Text | Print | Product List | Glossary Off
Versions: 1 2 3 4 5 6 7 8 9 10 11 12 13 14 15 16 17 18 19 20 21 22 23 24 25 26 27 28 29 30 31 32 33 34 35 36 37 38 39 40 41 42 43 44 45 46 47 48 49 50

000
ASUS43 KTOP 232259
RWRKS

WEATHER ROUNDUP FOR KANSAS
NATIONAL WEATHER SERVICE GOODLAND KS
500 PM CST TUE JAN 23 2018

NOTE:  "FAIR" INDICATES FEW OR NO CLOUDS BELOW 12,000 FEET WITH NO
SIGNIFICANT WEATHER AND/OR OBSTRUCTIONS TO VISIBILITY.

KSZ001>006-013>018-027>032-041>047-240000-
NORTHWEST KANSAS

CITY           SKY/WX    TMP DP  RH WIND       PRES   REMARKS
GOODLAND       CLEAR     33  24  69 W9        30.25R
HAYS           CLEAR     42  26  53 NW9       30.26R
HILL CITY      CLEAR     40  30  67 NW8       30.26R
RUSSELL        CLEAR     42  29  59 NW9       30.24R
$$

KSZ061>065-074>080-084>089-240000-
SOUTHWEST KANSAS

CITY           SKY/WX    TMP DP  RH WIND       PRES   REMARKS
DODGE CITY     CLEAR     47  22  37 N16G23    30.26R
GARDEN CITY    CLEAR     44  22  41 N15       30.27R
GREAT BEND     CLEAR     44  24  45 NW15      30.26R
LIBERAL        CLEAR     49  16  26 N15       30.28R
$$

KSZ066>073-081>083-090>101-240000-
SOUTHEAST KANSAS

CITY           SKY/WX    TMP DP  RH WIND       PRES   REMARKS
CHANUTE        CLEAR     44  22  41 W5        30.24R
COFFEYVILLE    CLEAR     47  21  35 NW6       30.25S
HUTCHINSON     CLEAR     46  22  38 NW13      30.24R
MEDICINE LODGE   N/A     51  18  27 NW13G20   30.24R
NEWTON         CLEAR     44  22  41 NW10      30.24R
PARSONS        CLEAR     46  21  37 NW5       30.25S
WICHITA INTL   CLEAR     48  20  32 NW8       30.24R
WICHITA JABRA  CLEAR     46  19  34 NW7       30.24R
WICHITA MCCONL CLEAR     47  17  30 W8        30.24R
WINFIELD       CLEAR     48  17  29 W6        30.26R
$$

KSZ007>012-019>026-033>040-048>060-102>105-240000-
NORTHEAST KANSAS

CITY           SKY/WX    TMP DP  RH WIND       PRES   REMARKS
CONCORDIA      CLEAR     39  27  62 W9        30.22R
EMPORIA        CLEAR     40  24  53 W9        30.23R
LAWRENCE       CLEAR     34  28  79 W6        30.23R
MANHATTAN      CLEAR     41  27  57 W3        30.24R
OLATHE IND     CLEAR     33  26  75 W6        30.22S
OLATHE EXE     CLEAR     33  26  75 W6        30.21S
SALINA         CLEAR     45  25  45 NW13      30.25R
TOPEKA BILLARD CLEAR     34  27  75 W9        30.24R
TOPEKA FORBES  CLEAR     36  28  73 W7        30.23R
$$




USA.gov is the U.S. government's official web portal to all federal, state and local government web resources and services.